Guthrie, OK

5:06 PM CST on February 24, 2017 (GMT -0600)
Guthrie Municipal

Weather History for KGOK - December, 2013

Change the Weather History Date:

Tuesday, December 31, 2013

  Actual Average Record
Temperature  
Mean Temperature 40 °F -  
Max Temperature 57 °F 46 °F 76 °F (1951)
Min Temperature 24 °F 22 °F 0 °F (1968)
Degree Days  
Heating Degree Days 24    
Moisture  
Dew Point 22 °F    
Average Humidity 51    
Maximum Humidity 77    
Minimum Humidity 26    
Precipitation  
Precipitation 0.00 in - - ()
Sea Level Pressure  
Sea Level Pressure 30.26 in    
Wind  
Wind Speed 8 mph (South)    
Max Wind Speed 21 mph    
Max Gust Speed 30 mph    
Visibility 10 miles    
Events      
Averages and records for this station are not official NWS values.
T = Trace of Precipitation, MM = Missing Value Source: NWS Daily Summary

Daily Weather History Graph

Daily Weather History Graph

Search for Another Location

Airport or City:

Trip Planner

Search our weather history database for the weather conditions in past years. The results will help you decide how hot, cold, wet, or windy it might be!

Date:

Astronomy

Dec. 31, 2013 Rise Set
Actual Time 7:39 AM CST 5:26 PM CST
Civil Twilight 7:11 AM CST 5:54 PM CST
Nautical Twilight 6:39 AM CST 6:26 PM CST
Astronomical Twilight 6:08 AM CST 6:57 PM CST
Moon 6:35 AM CST (12/31) 5:02 PM CST (12/31)
Length of Visible Light 10h 43m
Length of Day
9h 46m
Waning Crescent, 1% of the Moon is Illuminated
Dec 31
Waning Crescent
Jan 1
New
Jan 7
First Quarter
Jan 15
Full
Jan 23
Last Quarter

Hourly Weather History & Observations

Time (CST) Temp. Windchill Dew Point Humidity Pressure Visibility Wind Dir Wind Speed Gust Speed Precip Events Conditions
12:53 AM 28.9 °F 25.2 °F 19.9 °F 69% 30.39 in 10.0 mi South 3.5 mph - N/A   Clear
1:53 AM 28.0 °F 22.8 °F 19.9 °F 72% 30.37 in 10.0 mi SSW 4.6 mph - N/A   Clear
2:53 AM 28.0 °F 24.2 °F 19.9 °F 72% 30.37 in 10.0 mi South 3.5 mph - N/A   Clear
3:53 AM 27.0 °F 21.6 °F 19.9 °F 75% 30.37 in 10.0 mi South 4.6 mph - N/A   Clear
4:53 AM 30.0 °F 26.5 °F 21.0 °F 69% 30.36 in 10.0 mi South 3.5 mph - N/A   Clear
5:53 AM 28.0 °F 21.7 °F 21.0 °F 75% 30.35 in 10.0 mi South 5.8 mph - N/A   Clear
6:53 AM 30.9 °F 27.5 °F 21.0 °F 67% 30.35 in 10.0 mi SSW 3.5 mph - N/A   Clear
7:53 AM 24.1 °F 18.2 °F 18.0 °F 77% 30.37 in 10.0 mi SSW 4.6 mph - N/A   Clear
8:53 AM 34.0 °F 28.8 °F 24.1 °F 67% 30.36 in 10.0 mi South 5.8 mph - N/A   Clear
9:53 AM 39.0 °F 34.0 °F 26.1 °F 60% 30.37 in 10.0 mi WSW 6.9 mph - N/A   Clear
10:53 AM 48.9 °F - 24.1 °F 38% 30.35 in 10.0 mi SSW 16.1 mph 20.7 mph N/A   Clear
11:53 AM 53.1 °F - 21.9 °F 30% 30.31 in 10.0 mi SSW 16.1 mph - N/A   Clear
12:53 PM 55.0 °F - 21.9 °F 28% 30.26 in 10.0 mi SSW 20.7 mph 29.9 mph N/A   Clear
1:53 PM 55.9 °F - 21.9 °F 27% 30.22 in 10.0 mi South 18.4 mph 25.3 mph N/A   Clear
2:53 PM 57.0 °F - 21.9 °F 26% 30.19 in 10.0 mi South 18.4 mph - N/A   Clear
3:53 PM 55.0 °F - 21.9 °F 28% 30.17 in 10.0 mi SSW 13.8 mph 26.5 mph N/A   Clear
4:53 PM 52.0 °F - 23.0 °F 32% 30.16 in 10.0 mi South 11.5 mph - N/A   Clear
5:53 PM 48.9 °F - 24.1 °F 38% 30.15 in 10.0 mi South 11.5 mph - N/A   Clear
6:53 PM 46.9 °F - 24.1 °F 41% 30.14 in 10.0 mi South 12.7 mph - N/A   Clear
7:53 PM 46.0 °F 41.9 °F 24.1 °F 42% 30.16 in 10.0 mi South 8.1 mph - N/A   Clear
8:53 PM 44.1 °F 39.5 °F 24.1 °F 45% 30.16 in 10.0 mi South 8.1 mph - N/A   Clear
9:53 PM 44.1 °F 38.1 °F 24.1 °F 45% 30.14 in 10.0 mi South 11.5 mph - N/A   Clear
10:53 PM 43.0 °F 35.7 °F 24.1 °F 47% 30.12 in 10.0 mi South 15.0 mph 24.2 mph N/A   Clear
11:53 PM 42.1 °F 35.7 °F 25.0 °F 51% 30.10 in 10.0 mi South 11.5 mph 21.9 mph N/A   Clear